Regional Weather Roundup
Issued by NWS

Home | Current Version | Previous Version | Graphics & Text | Print | Product List | Glossary On
Versions: 1 2 3 4 5 6 7 8 9 10 11 12 13 14 15 16 17 18 19 20 21 22 23 24 25 26 27 28 29 30 31 32 33 34 35 36 37 38 39 40 41 42 43 44 45 46 47 48 49 50
000
ASUS43 KFSD 201702
RWRSD

WEATHER ROUNDUP FOR SOUTH DAKOTA
NATIONAL WEATHER SERVICE SIOUX FALLS SD
1100 AM CST TUE FEB 20 2018

NOTE: "FAIR" INDICATES FEW OR NO CLOUDS BELOW 12,000 FEET WITH NO
SIGNIFICANT WEATHER AND/OR OBSTRUCTIONS TO VISIBILITY.


SDZ001>005-009-010-012>017-201800-
NORTHWEST AND NORTH CENTRAL SOUTH DAKOTA

CITY           SKY/WX    TMP DP  RH WIND       PRES   REMARKS
BUFFALO          N/A     -5 -12  72 W10       30.00R WCI -23
FAITH            N/A     -1  -6  79 W13       30.12R WCI -19
MOBRIDGE       FLURRIES   9   1  70 NW15      30.11R WCI  -8
$$

SDZ012>016-024>037-041>051-057-063-072>074-201800-
SOUTHWEST AND SOUTH CENTRAL SOUTH DAKOTA

CITY           SKY/WX    TMP DP  RH WIND       PRES   REMARKS
RAPID CTY ARPT SUNNY      2  -5  72 CALM      30.09R
PIERRE         MOSUNNY    6   1  80 NW16      30.18R WCI -12
CUSTER         SUNNY      4 -11  50 W12       29.81R WCI -12
ELLSWORTH AFB  SUNNY      1  -8  67 SW5       30.07R WCI  -9
PHILIP         SUNNY      3  -3  76 W10       30.18R WCI -12
PINE RIDGE     SUNNY     -3  -8  79 SW5       30.11R WCI -13
SPEARFISH        N/A      0 -11  60 NW12      30.01R WCI -18
WINNER         FAIR       6  -2  69 NW18      30.17R WCI -13
$$

SDZ004>011-016>023-039-040-201800-
NORTHEAST SOUTH DAKOTA

CITY           SKY/WX    TMP DP  RH WIND       PRES   REMARKS
ABERDEEN       MIX PCPN   8   1  73 NW18      30.15R WCI -11
WATERTOWN      CLOUDY     6   0  76 NW17      30.04R WCI -13
BROOKINGS      FLURRIES   6   0  76 NW17      30.03R WCI -13
SISSETON         N/A      8   2  76 NW23G29   30.07R WCI -13
$$

SDZ017-020-022-023-036>040-048>070-201800-
SOUTHEAST SOUTH DAKOTA

CITY           SKY/WX    TMP DP  RH WIND       PRES   REMARKS
SIOUX FALLS    CLOUDY     8   1  73 NW17      30.05F WCI -10
HURON          CLOUDY     8   2  76 NW21      30.15R WCI -12
CHAMBERLAIN    MOSUNNY    7   1  76 W17       30.17R WCI -11
MITCHELL       CLOUDY     8   2  76 NW18      30.16R WCI -11
YANKTON        CLOUDY     8   2  76 NW24      30.13R HAZE    WCI -13
$$

ABBREVIATIONS USED IN REMARKS
   TC - TEMPERATURE IN CELSIUS
  WCI - WIND CHILL INDEX
   HX - HEAT INDEX
  VSB - VISIBILITY




USA.gov is the U.S. government's official web portal to all federal, state and local government web resources and services.